STARLINK-36466, 67358

Orbit data source: Space-Track

STARLINK-36466, 67358 is a payload satellite owned by SpaceX/Seattle (US) in LEO that was launched on Fri, 09 Jan 2026 UTC via an FALCON 9 launch vehicle from the Air Force Eastern Test Range (AFETR). Payload-class satellites include a variety of spacecraft equipped with specific instruments for various scientific and technological missions. These include communications satellites like Starlink; space stations such as the ISS; scientific satellites like the Hubble; Earth observation satellites from companies like Planet Labs, Umbra, and HawkEye 360; GPS; miniature CubeSats for education and research; and military/defense satellites.

Loading next visibility...
Identifier
67358, 2026-003AA
Orbit
LEO
Country
Flag of USUS
Related business
Manufacturer
SpaceX/Seattle
Mission
Operational Commercial Communications
Bus & Motor
STARLINK V2MO, Unknown motor
Mass
575 kg wet, ~530 kg dry
Launch date (UTC)
2026-01-09 (5 months ago)
Launch vehicle
FALCON 9
Launch site
Air Force Eastern Test Range (AFETR)
Object type
Payload
Rocket body
Debris
Shape & HBR
Box + 2 Pan, 17.7 m
Radar Cross Section
36.964 m², Large (>1 m²)

Expand to show TLE details & history
Last TLE update: 1 day ago

TLE from 1 day ago
0 STARLINK-36466
1 67358U 26003AA  26170.60459749  .00014000  00000-0  51717-3 0  9999
2 67358  43.0035  11.2272 0001453 262.7513  97.3174 15.27588464 24412
Epoch: 2026-06-19T14:30Z
TLE epoch observation values (Epoch: 2026-06-19T14:30:37.223Z)
Latitude
0.00003°
Longitude
-114.25905°
Altitude
482.927 km
Speed
7.626 km/s
True Right ascension
00h 44m 54s
True Declination
0° 00' 00"
Sunlit
Object was in daylight at epoch
Visualization orbit readout
Latitude
Unknown
Longitude
Unknown
Altitude
Unknown
Speed
Unknown
Apparent Right ascension
Unknown
Apparent Declination
Unknown
Sunlit
N/A
Visualization observer readout
Local Sidereal Time
07:19:37
Azimuth
Unknown
Elevation
Unknown
Doppler factor
Unknown
Orbital elements
Apogee altitude
485.966 km
Perigee altitude
483.971 km
Semi-major axis
6,863.105 km
Eccentricity
0.00015
Inclination
43.0035°
RAAN
11.2272°
Arg. of periapsis
262.7513°
True anomaly
97.33391°
Mean anomaly
97.3174°
Eccentric anomaly
97.32566°
Mean motion
3.81735 °/min
Orbital period
94.31 mins
BSTAR
0.00051717
Loading maneuver chart data...
Computing Atmospheric mass density...
Loading historical data...
Loading historical data...
Loading historical data...
Loading historical data...
Loading historical data...
Loading historical data...
Loading historical data...

Documentation

Showing up to 5 results
|